Date,TemperatureHighF,TemperatureAvgF,TemperatureLowF,DewpointHighF,DewpointAvgF,DewpointLowF,HumidityHigh,HumidityAvg,HumidityLow,PressureMaxIn,PressureMinIn,WindSpeedMaxMPH,WindSpeedAvgMPH,GustSpeedMaxMPH,PrecipitationSumIn
2013-5-1,70.7,49.7,31.4,42.9,36.3,30.1,98,66,27,30.59,30.46,6,1,11,0.00
2013-5-2,75.3,55.0,38.0,51.1,42.0,36.4,97,66,33,30.56,30.38,6,1,10,0.00
2013-5-3,75.6,56.9,39.4,53.8,45.2,37.8,97,69,38,30.41,30.24,6,1,14,0.00
2013-5-4,83.7,61.4,41.7,59.3,46.7,38.9,98,65,24,30.25,30.00,8,2,16,0.00
2013-5-5,88.5,65.4,44.9,54.3,47.8,42.2,95,60,24,30.01,29.78,8,2,13,0.00
2013-5-6,94.8,68.8,46.7,55.2,47.2,39.7,92,52,18,29.85,29.74,7,2,11,0.00
2013-5-7,81.3,63.2,51.8,56.9,52.2,48.7,92,70,41,30.01,29.82,7,3,14,0.00
2013-5-8,73.3,57.6,50.3,56.3,51.6,48.1,94,81,53,30.15,30.01,5,1,9,0.00
2013-5-9,78.5,59.2,45.8,58.7,52.1,44.4,98,80,48,30.23,30.13,6,1,10,0.00
2013-5-10,87.5,65.4,46.5,59.9,53.5,45.4,98,71,35,30.21,30.11,4,1,9,0.00
2013-5-11,87.0,69.0,55.5,59.6,54.4,48.2,92,63,34,30.18,29.99,5,1,10,0.00
2013-5-12,75.7,63.9,57.2,61.9,58.0,55.8,96,82,55,30.11,30.01,7,1,9,0.47
2013-5-13,66.1,55.7,46.2,60.6,52.7,43.3,97,90,73,30.20,29.93,16,4,38,0.35
2013-5-14,71.5,55.2,43.7,49.1,43.8,37.2,95,69,31,30.25,30.13,5,1,11,0.00
2013-5-15,70.3,53.3,41.8,53.2,46.6,40.1,97,80,45,30.14,30.04,7,1,12,0.08
2013-5-16,78.3,61.4,51.3,58.3,52.4,48.3,97,75,43,30.04,29.87,7,2,15,0.00
2013-5-17,60.6,55.3,51.6,55.0,51.3,48.6,97,87,67,30.08,29.96,6,1,10,0.13
2013-5-18,62.9,55.4,51.0,52.1,49.1,46.8,90,80,61,30.28,30.08,6,1,10,0.01
2013-5-19,65.5,55.7,48.3,53.9,50.2,46.3,95,83,62,30.41,30.28,6,1,10,0.00
2013-5-20,75.3,57.1,44.5,56.6,49.2,43.2,97,78,44,30.36,29.91,5,1,10,0.00
2013-5-21,60.8,51.0,45.9,53.5,46.9,42.2,96,86,68,29.90,29.78,7,2,14,0.28
2013-5-22,54.3,46.7,42.2,49.0,44.2,40.3,96,91,74,29.95,29.87,4,1,9,0.18
2013-5-23,63.1,49.8,43.9,50.9,46.2,42.8,97,88,60,30.03,29.94,8,1,15,0.10
2013-5-24,68.2,53.2,44.5,52.6,47.7,43.4,100,83,46,30.07,29.99,8,1,13,0.03
2013-5-25,68.5,55.7,48.0,52.2,48.0,45.3,96,77,46,30.06,29.98,4,1,8,0.01
2013-5-26,66.1,55.4,47.6,56.5,51.2,45.8,100,87,64,30.00,29.95,4,1,10,0.11
2013-5-27,60.7,54.6,48.0,57.1,52.6,46.7,100,93,83,29.99,29.73,3,0,11,0.21
2013-5-28,62.9,55.0,50.5,55.2,51.8,49.3,97,89,70,29.90,29.78,6,1,11,0.05
2013-5-29,59.2,53.4,49.0,55.2,50.4,47.7,97,90,72,29.99,29.69,10,2,18,0.20
2013-5-30,64.5,54.7,47.5,52.3,48.0,44.9,91,79,59,30.26,29.99,8,3,16,0.00
2013-5-31,72.8,57.6,48.5,52.0,47.8,43.7,93,72,42,30.35,30.26,5,1,8,0.01